Terminal Aerodrome Forecast
Issued by NWS Detroit/Pontiac, MI

Home | Current Version | Previous Version | Text Only | Print | Product List | Glossary On
Versions: 1 2 3 4 5 6 7 8 9 10 11 12 13 14 15 16 17 18 19 20 21 22 23 24 25 26 27 28 29 30 31 32 33 34 35
000
FTUS43 KDTX 220836 AAA
TAFDTW
TAF AMD
KDTW 220836Z 2209/2312 35010KT P6SM OVC022
     FM221400 36009KT P6SM BKN030
     FM222000 01007KT P6SM SCT035
     FM222300 02004KT P6SM SKC=

USA.gov is the U.S. government's official web portal to all federal, state and local government web resources and services.